This demonstration page uses our WeatherBlox Daily Observations layout. Learn more.

Left ArrowRight Arrow

34.02893, -84.19858

Hourly Observations for February 22, 2022

Temp ( °F °C ) Dew Point ( °F °C ) Humidity (%) Winds ( mph kmh ) Pressure ( in mb ) Visibility ( mi km ) Precip ( " mm )
12:10 am 00:10 Cloudy with Rain 52 11.1 52 11.1 100 100 VRB 3 6 30.29 1026 5 8 0.00 0.00
12:36 am 00:36 Cloudy with Rain 53 11.7 52 11.1 96 96 VRB 3 6 30.27 1025 5 8 0.01 0.25
12:53 am 00:53 Cloudy with Rain 53 11.7 52 11.1 96 96 SE 3 6 30.26 1025 5 8 0.01 0.25
1:39 am 01:39 Cloudy with Rain 54 12.2 53 11.7 97 97 SE 6 9 30.25 1024 9 14 0.00 0.00
1:53 am 01:53 Cloudy with Rain 54 12.2 54 12.2 100 100 Calm 30.25 1024 10 16 0.00 0.00
2:53 am 02:53 Cloudy with Rain 55 12.8 55 12.8 100 100 VRB 5 7 30.22 1023 10 16 0.12 3.05
3:09 am 03:09 Cloudy with Rain 56 13.3 55 12.8 97 97 ESE 6 9 30.22 1023 10 16 0.00 0.00
3:53 am 03:53 Cloudy with Rain 56 13.3 55 12.8 97 97 VRB 6 9 30.21 1023 10 16 0.00 0.00
4:44 am 04:44 Cloudy with Rain 56 13.3 55 12.8 97 97 SE 9 15 30.20 1023 10 16 0.00 0.00
4:53 am 04:53 Cloudy with Rain 56 13.3 55 12.8 97 97 SSE 6 9 30.20 1023 10 16 0.00 0.00
5:23 am 05:23 Cloudy with Rain 56 13.3 55 12.8 97 97 SSE 6 9 30.20 1023 10 16 0.00 0.00
5:53 am 05:53 Cloudy with Rain 56 13.3 55 12.8 97 97 SSE 7 11 30.20 1023 9 14 0.00 0.00
6:00 am 06:00 Cloudy with Rain 56 13.3 55 12.8 97 97 SE 9 15 30.20 1023 9 14 0.01 0.25
6:53 am 06:53 Cloudy 56 13.3 55 12.8 97 97 VRB 5 7 30.22 1023 7 11 0.01 0.25
7:03 am 07:03 Cloudy with Mist and Fog 56 13.3 55 12.8 97 97 SE 5 7 30.22 1023 6 10 0.00 0.00
7:53 am 07:53 Cloudy with Mist and Fog 56 13.3 55 12.8 97 97 SSE 6 9 30.22 1023 4 6 0.00 0.00
8:53 am 08:53 Cloudy with Mist and Fog 57 13.9 56 13.3 96 96 SSE 3 6 30.23 1024 4 6 0.00 0.00
9:21 am 09:21 Cloudy with Mist and Fog 57 13.9 56 13.3 96 96 SSE 6 9 30.24 1024 6 10 0.00 0.00
9:53 am 09:53 Cloudy 59 15 57 13.9 93 93 SSE 6 9 30.24 1024 8 13 0.00 0.00
10:46 am 10:46 Cloudy 60 15.6 57 13.9 90 90 Calm 30.24 1024 9 14 0.00 0.00
10:53 am 10:53 Cloudy 60 15.6 57 13.9 90 90 S 3 6 30.24 1024 9 14 0.00 0.00
11:53 am 11:53 Cloudy 62 16.7 58 14.4 86 86 S 8 13 30.24 1024 10 16 0.00 0.00
12:53 pm 12:53 Cloudy 64 17.8 59 15 84 84 SW 7 11 30.24 1024 10 16 0.00 0.00
1:53 pm 13:53 Cloudy 63 17.2 59 15 87 87 VRB 5 7 30.23 1024 9 14 0.00 0.00
2:03 pm 14:03 Cloudy 65 18.3 59 15 81 81 WSW 7 11 30.22 1023 9 14 0.00 0.00
2:53 pm 14:53 Cloudy 68 20 57 13.9 68 68 SW 12 19 30.21 1023 10 16 0.00 0.00
3:00 pm 15:00 Mostly Sunny 68 20 57 13.9 68 68 S 8 13 30.19 1022 10 16 0.00 0.00
3:53 pm 15:53 Sunny 70 21.1 57 13.9 64 64 S 14 22 30.18 1022 10 16 0.00 0.00
4:53 pm 16:53 Sunny 69 20.6 56 13.3 63 63 S 10 17 30.16 1021 10 16 0.00 0.00
5:53 pm 17:53 Sunny 68 20 56 13.3 65 65 SSW 7 11 30.16 1021 10 16 0.00 0.00
6:53 pm 18:53 Clear 63 17.2 56 13.3 78 78 ESE 3 6 30.17 1022 10 16 0.00 0.00
7:53 pm 19:53 Clear 63 17.2 57 13.9 81 81 Calm 30.17 1022 10 16 0.00 0.00
8:53 pm 20:53 Clear 63 17.2 57 13.9 81 81 SE 3 6 30.16 1021 10 16 0.00 0.00
9:53 pm 21:53 Mostly Clear 58 14.4 57 13.9 97 97 Calm 30.16 1022 9 14 0.00 0.00
10:53 pm 22:53 Clear 61 16.1 58 14.4 90 90 SSE 6 9 30.14 1021 10 16 0.00 0.00
11:53 pm 23:53 Clear 60 15.6 57 13.9 90 90 SSW 3 6 30.15 1021 10 16 0.00 0.00

Powered by AerisWeather